{"data":{"norad_id":66961,"epoch":"2026-09-20T06:59:48.266304Z","epoch_age_seconds":99737,"freshness":"FRESH","line1":"1 66961U 25288C   26263.29153086  .00012664  00000+0  46885-3 0  9998","line2":"2 66961  43.0002   4.0677 0001176 265.8516  94.2201 15.27586439 45053","mean_motion":15.27586439,"eccentricity":0.0001176,"inclination_deg":43.0002,"raan_deg":4.0677,"arg_perigee_deg":265.8516,"mean_anomaly_deg":94.2201,"bstar":0.00046885,"rev_number":4505,"period_min":94.266351365535,"perigee_km":482.22294220747,"apogee_km":483.83668864245,"semimajor_km":6861.166815425,"source":"CELESTRAK","updated_at":"2026-09-21T09:00:36.062187Z"}}